www.pogodaiklimat.ru

Погода и климат >> Архив погоды >> Беларусь >> Пинск


АРХИВ ПОГОДЫ в Пинске

Время (UTC), дата Ветер
(напр.,м/с)
 
Видим.   Явления Облачность Т
(С)
Тd
(С)
f
(%)
Тe
(С)
Тes
(С)
Комфортность P
(гПа)
Po
(гПа)
Тmin
(С)
Tmax
(С)
R
(мм)
R24
(мм)
S
(см)
06 17.02 З 2 6000 м дымка {туман} 10/0
[Ci fib]
+0.2 -1.0 92 -4 -3 по сезону 1019.8 1001.9 -0.6
09 17.02 ЮЗ 3 12 км 4/0
[Ci fib]
+5.7 +1.9 77 +3 +5 тепло 1020.4 1002.9
12 17.02 З 4
{10}
10 км 9/9 1000 м
[Sc]
+7.6 +3.3 74 +4 +5 тепло 1020.4 1003.0
15 17.02 З 3 10 км 9/9 1000 м
[Sc]
+7.0 +3.4 78 +4 +4 тепло 1020.4 1002.9
18 17.02 З 3 10 км 9/9 600 м
[Sc]
+6.2 +3.2 81 +3 +3 тепло 1021.6 1004.1 +8.3
21 17.02 СЗ 2 9000 м в посл. час дождь 9/9 600 м
[Sc]
+5.2 +3.7 90 +3 +3 тепло 1022.6 1005.0
00 18.02 СЗ 1 6000 м дымка {дождь} 9/9 600 м
[Sc]
+4.6 +3.7 94 +3 +3 тепло 1023.2 1005.5
03 18.02 СЗ 1 4200 м дымка 9/9 600 м
[Sc]
+4.0 +3.3 95 +2 +2 тепло 1023.7 1006.0
06 18.02 СЗ 1 200 м туман ?/? -0.2 -0.3 99 -2 -2 тепло 1024.7 1006.7 -0.2 0.0
09 18.02 С 1 600 м туман ?/? +1.5 +1.5 100 -1 -1 тепло 1026.1 1008.2
12 18.02 СВ 2 10 км 8/0
[Ac trans Ci fib]
+6.2 -0.3 63 +4 +7 тепло 1025.3 1007.7
15 18.02 СВ 2 10 км 9/0
[Ac und]
+5.2 -1.6 61 +3 +3 тепло 1024.3 1006.7
18 18.02 В 1 8000 м дымка 1/0
[Ac trans]
+0.1 -1.5 89 -2 -2 по сезону 1024.8 1006.8 +7.2
21 18.02 штиль 0 10 км ясно -0.2 -3.8 77 -1 -1 тепло 1024.5 1006.5
00 19.02 ЮВ 1 10 км ясно 0.0 -4.7 71 -2 -2 тепло 1023.8 1005.8
03 19.02 В 1 10 км ясно -1.2 -4.8 76 -3 -3 по сезону 1022.1 1004.1
06 19.02 Ю 2 8000 м дымка 8/0
[Ac trans Ci fib]
-1.4 -2.6 92 -5 -5 по сезону 1020.5 1002.5 -1.9
09 19.02 Ю 4 10 км 8/0
[Ci fib]
+4.8 +2.0 82 +1 +3 тепло 1018.5 1000.9
12 19.02 ЮЗ 5
{10}
15 км 6/0
[Ci fib]
+10.3 +2.7 59 +8 +9 тепло 1015.4 998.2
15 19.02 ЮЗ 4 10 км ясно +10.4 +2.3 57 +8 +8 тепло 1013.1 996.0
18 19.02 Ю 3 10 км ясно +6.3 +2.4 76 +3 +3 тепло 1012.3 994.9 +11.5
21 19.02 ЮЗ 3 10 км ясно +5.9 +2.0 76 +3 +3 тепло 1011.3 993.9
00 20.02 ЮЗ 4 10 км 4/0
[Ci fib]
+4.4 +0.8 77 0 0 тепло 1011.2 993.7
03 20.02 З 3 10 км 8/0
[Ci fib]
+4.7 +2.0 83 +1 +1 тепло 1010.9 993.5
06 20.02 ЮЗ 3 10 км 10/10 300 м
[St]
+4.2 +2.3 87 +1 +1 тепло 1011.3 993.8 +3.7
09 20.02 ЮЗ 5
{10}
10 км 10/10 300 м
[St]
+5.9 +2.3 78 +2 +2 тепло 1011.9 994.5
12 20.02 З 5-10
{14}
7000 м слаб. дождь 10/10 300 м
[Frnb Ns]
+3.4 +1.4 87 -2 -2 по сезону 1012.6 995.0
15 20.02 ЮЗ 4
{11}
10 км {дождь} 9/9 600 м
[Sc]
+6.1 +0.5 67 +3 +3 тепло 1011.9 994.5
18 20.02 З 6
{10}
10 км {дождь} 9/9 600 м
[Sc]
+5.0 +0.7 74 0 0 тепло 1012.7 995.2 +7.3 0.6
21 20.02 СЗ 5
{11}
10 км 8/0
[Ac trans]
+3.3 -2.2 67 -2 -2 тепло 1014.5 996.9
00 21.02 СЗ 5
{11}
10 км 3/0
[Ac trans]
+0.5 -6.1 61 -5 -5 по сезону 1016.6 998.8
03 21.02 СЗ 5 10 км 4/0
[Ci fib]
-0.3 -4.1 75 -6 -6 по сезону 1017.7 999.8
06 21.02 З 2
{11}
12 км 10/0
[Ci fib]
-0.7 -5.0 73 -4 -4 по сезону 1018.3 1000.4 -0.8
09 21.02 З 5
{10}
15 км 9/0
[Ac und]
+1.1 -5.0 64 -4 -3 по сезону 1019.2 1001.4
12 21.02 СЗ 6-11
{11}
15 км 9/0
[Ac und]
+2.6 -11.3 35 -2 -2 по сезону 1018.8 1001.1
15 21.02 СЗ 3
{11}
10 км 10/0
[Ac trans Ci fib]
+1.9 -11.5 36 -1 -1 по сезону 1019.2 1001.4
18 21.02 СЗ 2 10 км 9/0
[Ac und]
-0.3 -8.8 53 -3 -3 по сезону 1019.9 1002.0 +3.7
21 21.02 С 2 10 км 9/0
[Ac und]
-1.1 -8.6 57 -4 -4 по сезону 1020.8 1002.8
00 22.02 СВ 1 10 км 9/0
[Ac und]
-2.7 -12.5 47 -4 -4 по сезону 1022.4 1004.3
03 22.02 С 3 10 км 10/0
[Ac trans Ci fib]
-4.5 -14.2 47 -9 -9 по сезону 1024.6 1006.3
06 22.02 З 4 10 км ясно -6.8 -13.6 58 -13 -13 прохладно 1027.7 1009.2 -6.8
09 22.02 С 5-10
{11}
15 км ясно -4.1 -14.7 43 -10 -8 прохладно 1029.7 1011.3
12 22.02 СВ 8-13
{16}
15 км 1/0
[Ac trans]
-1.9 -16.1 33 -9 -8 холодно 1030.3 1012.1
15 22.02 С 8-12
{17}
10 км 6/0
[Ac trans Ci fib]
-2.2 -15.8 34 -9 -9 прохладно 1031.4 1013.1
18 22.02 СЗ 6-13
{16}
10 км ясно -3.5 -14.2 43 -10 -10 прохладно 1035.0 1016.6 -1.5
21 22.02 С 3
{14}
10 км ясно -4.8 -13.6 50 -10 -10 прохладно 1037.7 1019.1
00 23.02 С 2 10 км ясно -6.1 -12.9 59 -10 -10 прохладно 1039.9 1021.2
03 23.02 СЗ 2 10 км ясно -6.9 -12.0 67 -11 -11 прохладно 1041.7 1022.9
06 23.02 С 3 10 км 3/0
[Ci fib]
-7.8 -11.7 74 -13 -13 прохладно 1043.3 1024.4 -8.1
09 23.02 СЗ 3 10 км 8/0
[Ci fib]
-2.7 -11.3 52 -7 -4 по сезону 1043.9 1025.4
12 23.02 С 3 10 км 10/0
[Ci fib]
-0.7 -16.1 30 -4 -2 по сезону 1042.8 1024.4
15 23.02 СЗ 2 10 км 10/0
[Ci fib]
-0.7 -15.6 31 -3 -3 по сезону 1041.4 1023.1
18 23.02 З 2 10 км 9/0
[Ac und]
-1.2 -12.4 42 -4 -4 по сезону 1040.3 1021.9 -0.1
21 23.02 З 3 10 км 9/0
[Ac und]
-1.3 -11.1 47 -5 -5 по сезону 1039.3 1021.0
00 24.02 З 4 10 км 9/0
[Ac und]
-1.8 -9.9 54 -7 -7 по сезону 1036.9 1018.6
03 24.02 З 3 10 км 9/9 1000 м
[Sc]
-1.7 -8.5 60 -6 -6 по сезону 1035.5 1017.2

 

Местоположение метеостанции Пинск (Брестская область, Беларусь): широта 52.12 долгота 26.06 высота над уровнем моря 142 м.

В архиве по умолчанию представлена погода в Пинске за последнюю неделю. Архивные данные за месяц целиком и за предыдущие месяцы, начиная с января 2011 года, Вы можете получить, выбрав интересующий диапазон дат из раскрывающегося списка и нажав кнопку "Ввод!".


*Определитесь, кто Вы:
робот инопланетянин человек

Внимание! Время в таблицах - всемирное. Для получения местного времени необходимо прибавить поправку, которая равна 3 ч.

Смотрите также архив погоды в соседних городах и на ближайших метеорологических станциях:

Погода в Полесской (Брестская область, Беларусь) (48 км)
Погода в Дрогичине (Брестская область, Беларусь) (66 км)
Погода в Любешове (Волынская область, Украина) (74 км)
Погода в Ганцевичах (Брестская область, Беларусь) (75 км)
Погода в Ивацевичах (Брестская область, Беларусь) (80 км)
Погода в Маневичах (Волынская область, Украина) (100 км)
Погода в Сарнах (Ровенская область, Украина) (101 км)
Погода в Барановичах (Брестская область, Беларусь) (113 км)
Погода в Пружанах (Брестская область, Беларусь) (117 км)
Погода в Житковичах (Гомельская область, Беларусь) (124 км)

Пояснения к столбцам:

Ветер - указаны скорость ветра в м/с - средняя за 10 мин, порывы в срок и между сроками (в фигурных скобках) и направление, откуда дует ветер: С - северный, СВ - северо-восточный, В - восточный, ЮВ - юго-восточный, Ю - южный, ЮЗ - юго-западный, З - западный, СЗ - северо-западный.
Видимость - горизонтальная дальность видимости в метрах или километрах. При видимости от 1 до 10 км при отсутствии осадков обычно наблюдается дымка, при ухудшении видимости до 1 км и менее - туман. В сухую погоду видимость может ухудшаться дымом, пылью или мглою.
Явления - указаны атмосферные явления, наблюдавшиеся в срок или в последний час перед сроком; фигурными скобками обозначены явления, наблюдавшиеся между сроками (за 1-3 часа до срока); квадратными скобками обозначены град или гололедные отложения с указанием их диаметра в мм.
Облачность - указаны через наклонную черту общая и нижняя облачность в баллах и высота нижней границы облаков в метрах; квадратными скобками обозначены формы облаков: Ci - перистые, Cs - перисто-слоистые, Cc - перисто-кучевые, Ac - высококучевые, As - высокослоистые, Sc - слоисто-кучевые, Ns - слоисто-дождевые, Cu - кучевые, Cb - кучево-дождевые. Подробнее классификацию облаков см. в Атласе облаков (PDF).
T - Температура воздуха - температура, измеренная на высоте 2 м над землей.
Td - Температура точки росы - температура, при понижении до которой содержащийся в воздухе водяной пар достигнет насыщения.
f - Относительная влажность воздуха - влажноcть воздуха, измеренная на высоте 2 м над землей.
Te - Эффективная температура - температура, которую ощущает одетый по сезону человек в тени. Характеристика душности погоды. При расчете учитывается влияние влажности воздуха и скорости ветра на теплоощущения человека.
Tes - Эффективная температура на солнце - температура, которую ощущает человек, с поправкой на солнечный нагрев. Характеристика знойности погоды. Зависит от высоты солнца над горизонтом, облачности и скорости ветра. Ночью, в пасмурную погоду, а также при ветре 12 м/с и более поправка равна нулю.
P - Атмосферное давление - приведенное к уровню моря атмосферное давление.
Po - Атмосферное давление - измеренное на уровне метеостанции атмосферное давление.
Tmin - Минимальная температура - минимум температуры воздуха на высоте 2 м над землей.
Tmax - Максимальная температура - максимум температуры воздуха на высоте 2 м над землей.
R - Количество осадков - Количество выпавших осадков за период времени, мм. При наведении курсора мыши на число - период времени, за который выпало указанное количество осадков.
R24 - Количество осадков - Количество выпавших осадков за 24 часа, мм.
S - Снежный покров - Высота снежного покрова, см. При наведении курсора мыши на число - состояние снежного покрова и степень покрытия местности в баллах.